Regional Weather Roundup
Issued by NWS Sioux Falls, SD

Home | Current Version | Previous Version | Graphics & Text | Print | Product List | Glossary On
Versions: 1 2 3 4 5 6 7 8 9 10 11 12 13 14 15 16 17 18 19 20 21 22 23 24 25 26 27 28 29 30 31 32 33 34 35 36 37 38 39 40 41 42 43 44 45 46 47 48 49 50
000
ASUS43 KFSD 021610
RWRFSD

WEATHER ROUNDUP FOR SE SOUTH DAKOTA/SW MINNESOTA/NW IOWA
NATIONAL WEATHER SERVICE SIOUX FALLS SD
1100 AM CDT TUE SEP 02 2014

NOTE: "FAIR" INDICATES FEW OR NO CLOUDS BELOW 12,000 FEET WITH NO
SIGNIFICANT WEATHER AND OR OBSTRUCTIONS TO VISIBILITY.


SDZ038>040-050-052>070-021700-
SOUTHEAST SOUTH DAKOTA

CITY           SKY/WX    TMP DP  RH WIND       PRES   REMARKS
CHAMBERLAIN    SUNNY     68  55  63 SW7       29.95S
HURON          SUNNY     69  55  60 SW7       29.92S
MADISON        FAIR      68  55  64 NW3       29.96R
MITCHELL       SUNNY     68  57  68 SW5       29.96R
SIOUX FALLS    MOSUNNY   68  58  70 SW6       29.96R
WINNER         FAIR      72  51  47 SW6       29.96S
YANKTON        SUNNY     66  55  68 CALM      29.97F
$$

MNZ071-072-080-081-089-090-097-098-021700-
SOUTHWEST MINNESOTA

CITY           SKY/WX    TMP DP  RH WIND       PRES   REMARKS
FAIRMONT       SUNNY     70  55  60 W6        29.95R
JACKSON        SUNNY     70  55  60 W6        29.96S
LUVERNE        SUNNY     68  57  68 SW6       29.97R
MARSHALL       SUNNY     73  54  49 S6        29.91S
MONTEVIDEO     SUNNY     73  63  68 W5        29.91S
PIPESTONE      SUNNY     68  57  68 CALM      29.95S
REDWOOD FALLS  SUNNY     70  58  65 SW6       29.91S
TRACY          SUNNY     71  57  59 SW3       29.94S
WINDOM         SUNNY     70  57  64 W3        29.94S
WORTHINGTON    SUNNY     68  57  68 SW5       29.97R
$$

IAZ001>003-012>014-020>022-031-032-NEZ013-014-SDZ071-021700-
NORTHWEST IOWA

CITY           SKY/WX    TMP DP  RH WIND       PRES   REMARKS
CHEROKEE       SUNNY     68  61  78 SW5       29.99R
DENISON        SUNNY     66  61  82 S3        29.99S
ESTHERVILLE    SUNNY     69  59  70 SW8       29.96R
LE MARS        SUNNY     68  61  77 SW5       29.99S
ORANGE CITY    SUNNY     66  57  72 SW6       29.98S
SHELDON        SUNNY     66  61  82 SW6       29.96F
SIOUX CITY     SUNNY     69  60  73 SW7       29.99S
SPENCER        SUNNY     69  58  67 W9        29.97S
STORM LAKE     SUNNY     68  63  83 SW7       29.99S
$$

ABBREVIATIONS USED IN REMARKS
   TC - TEMPERATURE IN CELSIUS
  WCI - WIND CHILL INDEX
   HX - HEAT INDEX
  VSB - VISIBILITY




USA.gov is the U.S. government's official web portal to all federal, state and local government web resources and services.